When you browse on this site, cookies collect data to enhance your experience and personalize the content and advertising you see.
Visit our Privacy Policy to learn more. By continuing to use the site, you agree to this use of cookies and data.
  • In Austria
  • List of Countries
  • For 7 days
  • Water Temperature
  • Satellite Maps
  • Weather Map
  • News
  • Weather Widgets
  • user-avatar
    Login

    Hourly Weather Solden

    Today, 20 July, Saturday

    Time Temperature Precipitation Wind Pressure Humidity
    00:00 +6°C° 0 mm 0 mps 585 mmHg 94%
    01:00 +7°C° 0 mm 1 mps 585 mmHg 94%
    02:00 +7°C° 0 mm 1 mps 585 mmHg 94%
    03:00 +6°C° 0 mm 1 mps 585 mmHg 94%
    04:00 +5°C° 0 mm 0 mps 585 mmHg 94%
    05:00 +7°C° 0 mm 0 mps 586 mmHg 92%
    06:00 +8°C° 0 mm 0 mps 586 mmHg 91%
    07:00 +9°C° 0 mm 0 mps 587 mmHg 89%
    08:00 +12°C° 0 mm 1 mps 588 mmHg 83%
    09:00 +14°C° 0 mm 1 mps 589 mmHg 76%
    10:00 +15°C° 0 mm 1 mps 589 mmHg 70%
    11:00 +16°C° 0.4 mm 1 mps 590 mmHg 69%
    12:00 +16°C° 0.4 mm 2 mps 590 mmHg 69%
    13:00 +17°C° 0.4 mm 2 mps 590 mmHg 69%
    14:00 +16°C° 0.8 mm 2 mps 590 mmHg 71%
    15:00 +16°C° 0.8 mm 2 mps 590 mmHg 73%
    16:00 +16°C° 0.8 mm 2 mps 590 mmHg 75%
    17:00 +15°C° 0.9 mm 1 mps 589 mmHg 80%
    18:00 +14°C° 0.9 mm 1 mps 589 mmHg 85%
    19:00 +12°C° 0.9 mm 0 mps 589 mmHg 91%
    20:00 +10°C° 0.6 mm 0 mps 588 mmHg 91%
    21:00 +9°C° 0.6 mm 0 mps 588 mmHg 92%
    22:00 +8°C° 0.6 mm 0 mps 587 mmHg 92%
    23:00 +8°C° 0 mm 0 mps 587 mmHg 92%

    Tomorrow, 21 July, Sunday

    Time Temperature Precipitation Wind Pressure Humidity
    00:00 +7°C° 0 mm 0 mps 588 mmHg 92%
    01:00 +7°C° 0 mm 0 mps 588 mmHg 92%
    02:00 +7°C° 0.1 mm 0 mps 587 mmHg 92%
    03:00 +7°C° 0.1 mm 0 mps 587 mmHg 91%
    04:00 +7°C° 0.1 mm 0 mps 587 mmHg 91%
    05:00 +8°C° 0 mm 0 mps 588 mmHg 88%
    06:00 +10°C° 0 mm 0 mps 588 mmHg 85%
    07:00 +11°C° 0 mm 0 mps 589 mmHg 82%
    08:00 +13°C° 0.1 mm 0 mps 590 mmHg 76%
    09:00 +15°C° 0.1 mm 1 mps 591 mmHg 69%
    10:00 +18°C° 0.1 mm 1 mps 592 mmHg 62%
    11:00 +19°C° 0.5 mm 1 mps 593 mmHg 61%
    12:00 +20°C° 0.5 mm 1 mps 593 mmHg 59%
    13:00 +20°C° 0.5 mm 1 mps 593 mmHg 57%
    14:00 +20°C° 0.9 mm 1 mps 593 mmHg 61%
    15:00 +19°C° 0.9 mm 1 mps 593 mmHg 64%
    16:00 +18°C° 0.9 mm 1 mps 592 mmHg 68%
    17:00 +16°C° 0.6 mm 1 mps 592 mmHg 74%
    18:00 +15°C° 0.6 mm 1 mps 592 mmHg 80%
    19:00 +14°C° 0.6 mm 1 mps 591 mmHg 85%
    20:00 +13°C° 0.1 mm 1 mps 591 mmHg 86%
    21:00 +11°C° 0.1 mm 1 mps 590 mmHg 87%
    22:00 +8°C° 0.1 mm 2 mps 590 mmHg 88%
    23:00 +9°C° 0 mm 1 mps 590 mmHg 87%

    Day after tomorrow, 22 July, Monday

    Time Temperature Precipitation Wind Pressure Humidity
    00:00 +9°C° 0 mm 1 mps 589 mmHg 86%
    01:00 +8°C° 0 mm 1 mps 589 mmHg 85%
    02:00 +8°C° 0 mm 1 mps 589 mmHg 84%
    03:00 +7°C° 0 mm 1 mps 589 mmHg 83%
    04:00 +7°C° 0 mm 1 mps 589 mmHg 82%
    05:00 +9°C° 0 mm 1 mps 590 mmHg 79%
    06:00 +10°C° 0 mm 1 mps 590 mmHg 76%
    07:00 +11°C° 0 mm 0 mps 591 mmHg 72%
    08:00 +14°C° 0 mm 1 mps 592 mmHg 64%
    09:00 +16°C° 0 mm 1 mps 593 mmHg 56%
    10:00 +19°C° 0 mm 1 mps 594 mmHg 48%
    11:00 +20°C° 0 mm 1 mps 595 mmHg 45%
    12:00 +21°C° 0 mm 1 mps 595 mmHg 42%
    13:00 +22°C° 0 mm 1 mps 595 mmHg 39%
    14:00 +22°C° 0 mm 1 mps 595 mmHg 40%
    15:00 +22°C° 0 mm 1 mps 595 mmHg 42%
    16:00 +22°C° 0 mm 1 mps 594 mmHg 43%
    17:00 +20°C° 0 mm 1 mps 594 mmHg 55%
    18:00 +18°C° 0 mm 1 mps 593 mmHg 67%
    19:00 +16°C° 0 mm 1 mps 592 mmHg 79%
    20:00 +14°C° 0 mm 1 mps 592 mmHg 83%
    21:00 +12°C° 0 mm 1 mps 591 mmHg 86%
    22:00 +11°C° 0 mm 1 mps 591 mmHg 90%
    23:00 +11°C° 0 mm 1 mps 590 mmHg 89%

    23 July, Tuesday

    Time Temperature Precipitation Wind Pressure Humidity
    00:00 +10°C° 0 mm 1 mps 590 mmHg 89%
    01:00 +10°C° 0 mm 1 mps 590 mmHg 88%
    02:00 +9°C° 0 mm 1 mps 589 mmHg 87%
    03:00 +9°C° 0 mm 1 mps 589 mmHg 86%
    04:00 +9°C° 0 mm 1 mps 589 mmHg 86%
    05:00 +11°C° 0 mm 1 mps 590 mmHg 80%
    06:00 +11°C° 0 mm 0 mps 590 mmHg 75%
    07:00 +13°C° 0 mm 0 mps 591 mmHg 69%
    08:00 +15°C° 0 mm 0 mps 592 mmHg 62%
    09:00 +19°C° 0 mm 1 mps 593 mmHg 55%
    10:00 +21°C° 0 mm 1 mps 594 mmHg 48%
    11:00 +22°C° 0 mm 1 mps 594 mmHg 46%
    12:00 +22°C° 0 mm 1 mps 594 mmHg 43%
    13:00 +23°C° 0 mm 2 mps 594 mmHg 41%
    14:00 +23°C° 0.1 mm 2 mps 594 mmHg 44%
    15:00 +23°C° 0.1 mm 2 mps 593 mmHg 47%
    16:00 +21°C° 0.1 mm 2 mps 593 mmHg 50%
    17:00 +20°C° 0.6 mm 2 mps 592 mmHg 62%
    18:00 +19°C° 0.6 mm 1 mps 592 mmHg 73%
    19:00 +16°C° 0.6 mm 1 mps 591 mmHg 84%
    20:00 +15°C° 0.4 mm 1 mps 590 mmHg 87%
    21:00 +12°C° 0.4 mm 0 mps 590 mmHg 90%
    22:00 +11°C° 0.4 mm 0 mps 589 mmHg 92%
    23:00 +10°C° 0 mm 0 mps 589 mmHg 93%

    24 July, Wednesday

    Time Temperature Precipitation Wind Pressure Humidity
    00:00 +10°C° 0 mm 0 mps 589 mmHg 93%
    01:00 +10°C° 0 mm 0 mps 588 mmHg 93%
    02:00 +9°C° 0 mm 0 mps 588 mmHg 93%
    03:00 +9°C° 0 mm 0 mps 588 mmHg 92%
    04:00 +9°C° 0 mm 0 mps 587 mmHg 92%
    05:00 +10°C° 0 mm 0 mps 588 mmHg 89%
    06:00 +12°C° 0 mm 0 mps 589 mmHg 86%
    07:00 +13°C° 0 mm 0 mps 590 mmHg 84%
    08:00 +15°C° 0 mm 0 mps 591 mmHg 77%
    09:00 +18°C° 0 mm 1 mps 591 mmHg 70%
    10:00 +20°C° 0 mm 1 mps 592 mmHg 63%
    11:00 +21°C° 0 mm 1 mps 592 mmHg 59%
    12:00 +22°C° 0 mm 1 mps 592 mmHg 56%
    13:00 +23°C° 0 mm 2 mps 593 mmHg 53%
    14:00 +21°C° 0.5 mm 2 mps 592 mmHg 55%
    15:00 +21°C° 0.5 mm 2 mps 592 mmHg 58%
    16:00 +21°C° 0.5 mm 2 mps 592 mmHg 61%
    17:00 +20°C° 1.3 mm 1 mps 591 mmHg 69%
    18:00 +19°C° 1.3 mm 1 mps 590 mmHg 78%
    19:00 +16°C° 1.3 mm 1 mps 590 mmHg 86%
    20:00 +14°C° 0.7 mm 0 mps 590 mmHg 87%
    21:00 +13°C° 0.7 mm 0 mps 589 mmHg 89%
    22:00 +12°C° 0.7 mm 0 mps 589 mmHg 90%
    23:00 +11°C° 0.1 mm 0 mps 589 mmHg 91%

    25 July, Thursday

    Time Temperature Precipitation Wind Pressure Humidity
    00:00 +11°C° 0.1 mm 0 mps 588 mmHg 92%
    01:00 +10°C° 0.1 mm 0 mps 588 mmHg 93%
    02:00 +10°C° 0.1 mm 0 mps 588 mmHg 93%
    03:00 +10°C° 0.1 mm 0 mps 588 mmHg 93%
    04:00 +10°C° 0.1 mm 0 mps 587 mmHg 94%
    05:00 +11°C° 0 mm 0 mps 588 mmHg 92%
    06:00 +12°C° 0 mm 0 mps 589 mmHg 90%
    07:00 +13°C° 0 mm 0 mps 589 mmHg 89%
    08:00 +16°C° 0.1 mm 1 mps 590 mmHg 83%
    09:00 +18°C° 0.1 mm 1 mps 591 mmHg 78%
    10:00 +20°C° 0.1 mm 1 mps 591 mmHg 72%
    11:00 +20°C° 0.5 mm 1 mps 592 mmHg 69%
    12:00 +21°C° 0.5 mm 1 mps 592 mmHg 65%
    13:00 +21°C° 0.5 mm 2 mps 592 mmHg 62%
    14:00 +21°C° 0.9 mm 2 mps 592 mmHg 64%
    15:00 +20°C° 0.9 mm 2 mps 591 mmHg 66%
    16:00 +20°C° 0.9 mm 2 mps 591 mmHg 68%
    17:00 +19°C° 1.7 mm 1 mps 590 mmHg 75%
    18:00 +18°C° 1.7 mm 1 mps 590 mmHg 82%
    19:00 +16°C° 1.7 mm 1 mps 589 mmHg 88%
    20:00 +14°C° 0.5 mm 0 mps 589 mmHg 90%
    21:00 +12°C° 0.5 mm 0 mps 588 mmHg 92%
    22:00 +11°C° 0.5 mm 0 mps 588 mmHg 94%
    23:00 +11°C° 0.1 mm 0 mps 588 mmHg 94%
    Show more